AO-07 1 07530U 74089B 15288.75617050 -.00000048 00000-0 -28664-4 0 9992 2 07530 101.5377 260.8690 0012408 68.3762 53.4153 12.53617039872363 FO-29 1 24278U 96046B 15287.87046431 -.00000026 00000-0 67836-5 0 9998 2 24278 098.5575 240.5633 0351308 120.5018 301.4148 13.53057559945949 SO-33 1 25509U 98061B 15288.36322752 .00000270 00000-0 42639-4 0 9996 2 25509 31.4318 290.0579 0347548 47.0989 315.8271 14.30077682886639 RS-22 1 27939U 03042A 15288.67222878 .00000304 00000-0 63457-4 0 9991 2 27939 97.8547 85.3190 0013461 10.3976 349.7494 14.66173472643845 HO-68 1 36122U 09072B 15288.63644347 -.00000059 00000-0 -43517-4 0 9993 2 36122 100.1816 329.0746 0007260 197.8983 162.1876 13.16329597280304 AO-73 1 39444U 13066AE 15288.74443823 .00000999 00000-0 13300-3 0 9996 2 39444 97.7174 347.0158 0060991 102.4288 258.3758 14.80519909101252 EO-79 1 40025U 14033R 15288.70980879 .00000966 00000-0 11277-3 0 9996 2 40025 97.9404 189.0824 0013515 143.9683 216.2446 14.87422934 71701 XW-2A 1 40903U 15049E 15288.63702060 .00001860 00000-0 97840-4 0 9990 2 40903 97.4559 296.3594 0024390 207.8265 291.7266 15.16664435 3897 XW-2C 1 40906U 15049H 15288.63740041 .00002108 00000-0 12533-3 0 9995 2 40906 97.4564 296.2099 0016571 159.9649 339.1176 15.12241127 3870 LILACSAT-2 1 40908U 15049K 15288.31165169 .00001296 00000-0 79610-4 0 9991 2 40908 97.4633 295.8933 0017153 154.1879 325.3102 15.11697900 3824 XW-2E 1 40909U 15049L 15288.36360159 .00002932 00000-0 17150-3 0 9991 2 40909 97.4571 295.9527 0015639 163.9416 309.4395 15.12530053 3832 UO-11 1 14781U 84021B 15288.31165529 .00000396 00000-0 55703-4 0 9994 2 14781 97.7874 342.3498 0009564 46.1639 314.0363 14.82531719699826 AO-16 1 20439U 90005D 15288.76180487 .00000069 00000-0 41440-4 0 9999 2 20439 98.5486 223.2272 0011126 158.7201 260.3148 14.32575356344001 LO-19 1 20442U 90005G 15288.32103387 .00000055 00000-0 35887-4 0 9992 2 20442 98.5191 221.9846 0012293 148.2410 211.9517 14.32765018344145 AO-27 1 22825U 93061C 15288.77196885 .00000042 00000-0 33704-4 0 9990 2 22825 98.7230 238.9928 0007759 322.4461 99.4644 14.29908380150175 IO-26 1 22826U 93061D 15288.78969545 .00000062 00000-0 41328-4 0 9996 2 22826 98.7173 239.1631 0008151 313.0602 46.9897 14.30227936150323 GO-32 1 25397U 98043D 15287.87355054 .00000016 00000-0 25632-4 0 9999 2 25397 098.5336 234.6379 0001453 029.1550 034.4603 14.23563331896599 NO-44 1 26931U 01043C 15287.93215298 .00000017 00000-0 38319-4 0 9997 2 26931 067.0512 228.1982 0006431 277.1217 082.9153 14.30348615732855 SO-50 1 27607U 02058C 15287.92271821 .00000317 00000-0 65560-4 0 9999 2 27607 064.5552 193.1502 0083003 265.4328 093.7289 14.74874678688811 CO-55 1 27844U 03031E 15288.72924040 .00000128 00000-0 77762-4 0 9998 2 27844 98.6962 295.5442 0008939 317.7751 42.2737 14.21855687637567 CO-57 1 27848U 03031J 15288.01542432 .00000102 00000-0 66832-4 0 9993 2 27848 98.7060 294.8098 0009008 328.3392 85.4739 14.21495203637371 AO-51 1 28375U 04025K 15288.65619604 .00000115 00000-0 47274-4 0 9992 2 28375 98.3021 225.6928 0082090 326.5683 33.0339 14.41704606593849 CP3 1 31129U 07012N 15288.35272641 .00000548 00000-0 12779-3 0 9996 2 31129 97.9962 249.0065 0095254 299.8761 216.0010 14.55983014450608 CO-65 1 32785U 08021C 15288.22792567 .00000757 00000-0 90017-4 0 9990 2 32785 97.6358 327.2994 0014170 35.9833 30.5650 14.87109859404071 PRISM 1 33493U 09002B 15288.68402545 .00001732 00000-0 16896-3 0 9997 2 33493 98.2414 131.9627 0015034 297.9291 62.0377 14.93815561364565 SOHLA-1 1 33496U 09002E 15287.99471800 .00000227 00000-0 44993-4 0 9991 2 33496 98.2290 57.0152 0007200 135.7794 290.1457 14.71441034360794 TISAT-1 1 36799U 10035E 15288.73111440 .00001663 00000-0 18303-3 0 9992 2 36799 98.0211 30.5748 0013249 166.6658 297.5260 14.88932096284893 STUDSAT 1 36801U 10035G 15287.94994830 .00017894 00000-0 94379-3 0 9990 2 36801 098.0743 054.4401 0006235 096.2976 263.8965 15.15611400285967 ALMASAT-1 1 38078U 12006B 15288.41181630 .00027387 33097-5 45678-3 0 9990 2 38078 69.4491 295.8890 0448259 90.1736 275.0823 14.85769042192858 CUBEBUG-1 1 39153U 13018D 15288.21032015 .00000767 00000-0 10969-3 0 9990 2 39153 98.0127 12.2155 0016367 221.9932 138.0025 14.79443835133225 ESTCUBE-1 1 39161U 13021C 15288.71470579 .00000499 00000-0 88863-4 0 9990 2 39161 98.0672 10.5648 0008596 295.0342 64.9968 14.71332743130967 DUCHIFAT-1 1 40021U 14033M 15288.72553967 .00001469 00000-0 16421-3 0 9993 2 40021 97.9426 189.6427 0014122 143.5585 216.6595 14.88435570 71731 NANOSATCBR1 1 40024U 14033Q 15288.68435618 .00001287 00000-0 14625-3 0 9995 2 40024 97.9405 189.2784 0013353 143.0544 217.1594 14.87966231 71713 DTUSAT-2 1 40030U 14033W 15288.69812018 .00001016 00000-0 11939-3 0 9991 2 40030 97.9389 188.7200 0013082 137.4835 222.7397 14.87051255 71687 ANTELSAT 1 40034U 14033AA 15288.63077158 .00000662 00000-0 10811-3 0 9991 2 40034 97.9270 177.9360 0060974 93.2928 267.5262 14.72931406 71026 MET-2/21 1 22782U 93055A 15288.11832735 .00000011 00000-0 -35625-5 0 9996 2 22782 82.5486 148.5153 0022242 347.8327 123.9145 13.83776882117185 OKEAN-4 1 23317U 94066A 15288.22479492 .00000537 00000-0 57290-4 0 9996 2 23317 82.5382 332.6649 0018558 293.5938 130.6150 14.86851898135143 NOAA-14 1 23455U 94089A 15287.91851578 .00000010 00000-0 27869-4 0 9993 2 23455 098.7455 006.8675 0010551 098.7577 313.6574 14.14054675072203 NOAA-15 1 25338U 98030A 15288.73109549 .00000051 00000-0 40530-4 0 9995 2 25338 98.7783 287.4837 0010663 172.8915 187.2417 14.25667061906017 RESURS 1 25394U 98043A 15287.90467661 -.00000041 00000-0 70804-6 0 9990 2 25394 98.4801 238.7491 0000522 343.6397 83.9010 14.24457838897329 FENGYUN1 1 25730U 99025A 15287.93662282 .00000250 00000-0 15620-3 0 9997 2 25730 98.9527 252.8281 0019559 158.8416 234.9632 14.13654156845977 OKEAN-0 1 25860U 99039A 15287.89205786 .00000297 00000-0 50501-4 0 9992 2 25860 098.1102 256.2457 0001010 070.1960 342.2316 14.76154690873530 NOAA-16 1 26536U 00055A 15288.32262497 .00000031 00000-0 40367-4 0 9999 2 26536 98.9302 354.1123 0009550 250.8283 109.1855 14.13111194776624 NOAA-17 1 27453U 02032A 15287.94584955 -.00000001 00000-0 17364-4 0 9997 2 27453 098.3531 268.0873 0011398 185.8278 174.2771 14.24902294691706 NOAA-18 1 28654U 05018A 15288.71872524 .00000049 00000-0 51935-4 0 9999 2 28654 99.1921 284.3509 0014115 346.9459 13.1345 14.12239082536082 NOAA-19 1 33591U 09005A 15287.92392414 .00000147 00000-0 10516-3 0 9990 2 33591 099.0037 238.1649 0013669 188.6991 171.3945 14.11987623344127 HUBBLE 1 20580U 90037B 15287.86893630 .00001226 00000-0 66833-4 0 9991 2 20580 028.4696 084.7133 0003164 082.0980 039.2172 15.07758140197806 ISS 1 25544U 98067A 15288.78742221 .00015106 00000-0 23303-3 0 9994 2 25544 51.6446 202.1286 0006493 44.8455 55.9270 15.54345139966808 CO-58 1 28895U 05043F 15288.30305931 .00000406 00000-0 88003-4 0 9995 2 28895 97.8219 109.8248 0015712 277.8103 82.1315 14.62923127531158 FALCON 1 30776U 07006E 15288.24064582 .00006726 00000-0 25798-3 0 9996 2 30776 35.4278 327.6981 0002255 237.3260 184.2744 15.25873885474644 MAST 1 31126U 07012K 15288.40781317 .00000323 00000-0 79782-4 0 9993 2 31126 97.9766 251.0832 0089433 281.2143 232.1014 14.56169239450983 CAPE1 1 31130U 07012P 15287.86252467 .00000512 00000-0 12067-3 0 9998 2 31130 097.9979 247.9727 0096010 303.5711 055.6348 14.55645419450301 COMPASS 1 32787U 08021E 15288.33863271 .00001565 00000-0 16298-3 0 9991 2 32787 97.6380 332.2656 0013384 20.7178 339.4581 14.91155967404417 AAUSAT2 1 32788U 08021F 15288.71610193 .00001453 00000-0 14766-3 0 9991 2 32788 97.6389 334.3531 0012677 16.2018 343.9605 14.92248515404576 DO-64 1 32789U 08021G 15288.15440322 .00004161 00000-0 33087-3 0 9991 2 32789 97.6489 346.5900 0009241 21.4612 35.2897 15.00936817405073 CO-66 1 32791U 08021J 15288.31619077 .00001069 00000-0 11883-3 0 9991 2 32791 97.6377 329.7217 0014414 27.8467 332.3520 14.89110188404199 RS-30 1 32953U 08025A 15288.64236347 .00000010 00000-0 -13620-7 0 9997 2 32953 82.4996 259.3236 0018509 173.4743 186.6589 12.43064277335576 METEOR-M 1 35865U 09049A 15288.75970775 .00000008 00000-0 22523-4 0 9996 2 35865 98.4881 324.7087 0003509 115.8406 358.1099 14.22050363315347 RS-38 1 35869U 09049E 15288.11522243 .00000032 00000-0 33456-4 0 9997 2 35869 98.4801 323.6603 0005359 116.5135 243.6596 14.22312104315307 JUGNU 1 37839U 11058B 15287.05099905 .00000354 00000-0 46745-4 0 9997 2 37839 19.9607 201.9135 0018823 276.0937 205.4609 14.12493316207044 SRMSAT 1 37841U 11058D 15288.22863765 .00000345 00000-0 44495-4 0 9993 2 37841 19.9714 223.9243 0011850 209.7222 300.0083 14.10501321206921 RAX-2 1 37853U 11061D 15288.20311461 .00004409 00000-0 27024-3 0 9992 2 37853 101.6977 198.2755 0192113 84.2906 278.0171 14.97076655215051 AUBIESAT 1 37854U 11061E 15287.80218812 .00004856 00000-0 28811-3 0 9995 2 37854 101.6903 201.8068 0183168 79.6964 282.4839 14.99239432215136 HRBE 1 37855U 11061F 15288.70892238 .00005441 00000-0 31540-3 0 9990 2 37855 101.6948 201.4292 0196922 79.7202 282.6144 14.98080900215199 HORYU-2 1 38340U 12025D 15287.89465335 .00000805 00000-0 12892-3 0 9992 2 38340 98.3279 261.0196 0013253 76.7087 283.5598 14.74538567183172 RS-40 1 38735U 12041C 15288.24397369 .00000040 00000-0 21992-3 0 9991 2 38735 82.4798 345.1258 0015465 278.7226 81.2095 12.42570314145823 PROITERES 1 38756U 12047B 15288.40228735 .00000337 00000-0 56858-4 0 9997 2 38756 98.2268 29.7666 0011074 275.9263 84.0690 14.75943687166733 BEESAT-3 1 39134U 13015E 15288.13554403 .00006450 00000-0 36822-3 0 9998 2 39134 64.8740 33.4013 0023684 237.8164 122.0663 15.13335353136843 BEESAT-2 1 39136U 13015G 15287.79899087 .00004747 00000-0 28799-3 0 9992 2 39136 064.8745 037.9123 0024327 235.8870 123.9945 15.11499506136345 ZACUBE-1 1 39417U 13066B 15287.87873418 .00000826 00000-0 11258-3 0 9995 2 39417 097.7169 345.8350 0061648 106.3059 254.4945 14.79943714102333 TRITON-1 1 39427U 13066M 15288.13944948 .00000666 00000-0 11578-3 0 9990 2 39427 97.7012 331.7585 0116414 143.5335 217.3871 14.66828752101444 DELFIN3XT 1 39428U 13066N 15288.10547480 .00001072 00000-0 18370-3 0 9997 2 39428 97.7026 329.8348 0124637 149.2826 211.5751 14.65687534101307 GOMX-1 1 39430U 13066Q 15288.64060848 .00000504 00000-0 10177-3 0 9993 2 39430 97.6954 322.9968 0153393 169.7540 190.6835 14.58237357100936 MO-76 1 39436U 13066W 15287.90534119 .00020515 00000-0 12358-2 0 9990 2 39436 097.7372 005.0598 0020645 058.5804 301.7441 15.10641852102394 LO-74 1 39440U 13066AA 15288.16840093 .00000757 00000-0 11428-3 0 9999 2 39440 97.7106 340.4291 0083109 119.5914 241.3610 14.74742896102019 PUCPSAT-1 1 39442U 13066AC 15287.92180923 .00001312 00000-0 14393-3 0 9995 2 39442 097.7283 355.1536 0034351 087.9656 272.5494 14.88955385101062 SPROUT 1 39770U 14029E 15288.13476173 .00001460 00000-0 18077-3 0 9995 2 39770 97.8748 23.3542 0010168 163.1366 197.0203 14.84196374 75429 POPSAT-HIP1 1 40028U 14033U 15288.69141983 .00000710 00000-0 84824-4 0 9998 2 40028 97.9439 189.1676 0014558 141.9439 218.2825 14.87292009 71692 EO-80 1 40032U 14033Y 15288.71283926 .00001017 00000-0 11977-3 0 9999 2 40032 97.9397 188.7463 0013065 137.6044 222.6183 14.86978410 71686 VELOX-1 1 40057U 14034E 15288.32935884 .00000884 00000-0 13569-3 0 9991 2 40057 98.2113 8.3792 0010642 209.6767 150.3837 14.76112269 69608 DAURIA DX 1 1 40071U 14037C 15288.22945947 .00000388 00000-0 58098-4 0 9996 2 40071 98.3493 4.5333 0007886 209.0132 151.0646 14.80529390 68552 UKUBE-1 1 40074U 14037F 15288.38377533 .00000888 00000-0 11789-3 0 9996 2 40074 98.3518 5.8724 0004182 206.2186 153.8814 14.82475547 68648 HODOYOSHI-1 1 40299U 14070B 15288.71442704 .00001930 00000-0 92295-4 0 9993 2 40299 97.4512 8.7372 0015006 73.1928 47.7524 15.20113630 52124 CHUBUSAT-1 1 40300U 14070C 15288.73375836 .00002303 00000-0 11476-3 0 9995 2 40300 97.4476 7.6891 0023420 75.6320 40.4417 15.18334469 52068 QSAT-EOS 1 40301U 14070D 15288.39516385 .00004104 00000-0 20077-3 0 9992 2 40301 97.4437 6.5925 0032527 77.1976 350.9782 15.18293863 51979 TSUBAME 1 40302U 14070E 15288.40522373 .00002694 00000-0 14985-3 0 9992 2 40302 97.4409 4.6648 0043808 82.6466 343.7666 15.13697527 51857 FIREBIRD FU3 1 40377U 15003B 15288.71616995 .00007271 00000-0 35360-3 0 9995 2 40377 99.1041 344.5498 0153461 218.1437 140.8848 15.08991181 38715 FIREBIRD FU4 1 40378U 15003C 15288.71343808 .00007419 00000-0 36031-3 0 9996 2 40378 99.1044 344.5547 0153730 218.1086 140.9188 15.08992562 38715 GRIFEX 1 40379U 15003D 15288.68451376 .00004740 00000-0 23781-3 0 9995 2 40379 99.1062 344.2753 0155296 219.9354 139.0365 15.08024880 38690 LAMBDA-SAT 1 40458U 98067GB 15136.30676273 .20783109 12527-4 14817-2 0 9995 2 40458 051.6075 233.7697 0010355 318.5347 043.1720 16.39926603 21161 NO-84 1 40654U 15288.49367662 .00022359 00000-0 53845-3 0 01548 2 40654 054.9904 057.4239 0237449 184.1513 175.7877 15.17065373022413 NO-83 1 40655U 15288.35394685 .00030702 00000-0 71767-3 0 01600 2 40655 054.9882 057.2922 0231914 184.2668 175.6691 15.18596357022403 DEORBITSAIL 1 40719U 15032E 15287.94206183 .00001344 00000-0 20820-3 0 9995 2 40719 098.0393 176.4437 0016219 312.4616 047.5221 14.74784363014181 NUDT-PHONESAT 1 40900U 15049B 15288.28318868 .00004335 00000-0 24523-3 0 9994 2 40900 97.4492 295.8838 0015824 182.3630 294.9901 15.13475032 3835 XW-2D 1 40907U 15049J 15288.70262729 .00002133 00000-0 12694-3 0 9992 2 40907 97.4537 296.2602 0016001 158.0200 331.2635 15.12192141 3887 XW-2F 1 40910U 15049M 15288.64059229 .00003006 00000-0 17786-3 0 9995 2 40910 97.4573 296.2065 0017269 157.2743 341.4914 15.12076880 3765 XW-2B 1 40911U 15049N 15288.23948970 .00002234 00000-0 13276-3 0 9993 2 40911 97.4579 295.8241 0015736 159.8139 330.9733 15.12207527 3718 DCBB 1 40912U 15049P 15288.34465962 .00002755 00000-0 15563-3 0 9990 2 40912 97.4570 295.9839 0017566 156.7727 328.5724 15.13812047 3731 TW-1C 1 40926U 15051B 15288.78140373 .00007956 00000-0 27240-3 0 9995 2 40926 97.3087 323.9474 0016140 201.6764 158.4312 15.30111309 3154 TW-1C 1 40928U 15051D 15288.34318358 .00004074 00000-0 14154-3 0 9997 2 40928 97.3023 323.5085 0013826 212.8780 271.9978 15.30228564 3083 OB A PSLV-C30 1 40930U 15052A 15288.26046762 .00000708 00000-0 10042-4 0 9992 2 40930 5.9984 268.3246 0012418 242.5368 117.3577 14.76124728 2533 OB B PSLV-C30 1 40931U 15052B 15288.25780064 .00000708 00000-0 97476-5 0 9999 2 40931 5.9971 268.3464 0012883 243.7469 116.1432 14.76353079 2522 OB C PSLV-C30 1 40932U 15052C 15288.18739041 .00001219 00000-0 80667-4 0 9992 2 40932 6.0071 268.7992 0014313 246.2675 113.6225 14.76611782 2512 OB D PSLV-C30 1 40933U 15052D 15288.18551443 .00001552 00000-0 12658-3 0 9995 2 40933 6.0110 268.7536 0014361 245.3685 114.4974 14.76774942 2513 OB E PSLV-C30 1 40934U 15052E 15288.66746915 .00001602 00000-0 13702-3 0 9996 2 40934 6.0052 265.5026 0011544 248.9351 110.9554 14.76000503 2551 OB F PSLV-C30 1 40935U 15052F 15288.66958253 .00001808 00000-0 16689-3 0 9992 2 40935 6.0121 265.4826 0011592 248.3434 111.5514 14.75824554 2568 OB G PSLV-C30 1 40936U 15052G 15288.26477728 .00000949 00000-0 45089-4 0 9994 2 40936 6.0016 268.4019 0010641 239.1868 120.7615 14.75755504 2519 AAUSat-5 1 40948U 98067GZ 15288.64625490 .00043073 00000-0 61387-3 0 9990 2 40948 51.6443 202.7405 0009665 50.5982 21.6199 15.55826729 1565 GomX-3 1 40949U 98067HA 15288.39540662 .00036371 00000-0 52429-3 0 9990 2 40949 51.6455 204.0048 0007747 58.0838 44.2056 15.55615533 1527 OB A CZ-2D 1 40958U 15057A 15288.64546235 .00000182 00000-0 36447-4 0 9992 2 40958 98.0421 1.4465 0017469 216.5075 143.4951 14.72712813 1245 OB B CZ-2D 1 40959U 15057B 15288.64457026 .00000144 00000-0 30330-4 0 9995 2 40959 98.0423 1.4488 0017269 219.3785 140.6176 14.72867677 1258 OB C CZ-2D 1 40960U 15057C 15288.64396265 .00000113 00000-0 25458-4 0 9995 2 40960 98.0412 1.4486 0017438 220.9498 139.0409 14.72973038 1253 OB D CZ-2D 1 40961U 15057D 15288.64320823 .00000405 00000-0 70620-4 0 9998 2 40961 98.0420 1.4496 0017668 222.1628 137.8225 14.73106734 1252 AO-85 1 40967U 15288.45410647 .00001717 00000-0 19463-3 0 00095 2 40967 064.7786 270.6978 0217887 279.7064 188.0541 14.74257447000881 /EX
